カタログに戻る

STARLINK-30978

運用中通信VLEO
NORAD 58490·PAYLOAD·🇺🇸 United States

打ち上げ Dec 3, 2023 から Cape Canaveral Space Force Station

Loading…

次のパス (今後24時間)

TLE

最新Source: CelesTrak SupGP

元期: Sep 15, 2026, 02:26 UTC

1 58490C 23186T   26258.10187500 -.00006813  00000+0 -24686-3 0  2587
2 58490  43.0026  73.8709 0002026 265.9712 150.6369 15.27568512    12

AllMySatでSTARLINK-30978をリアルタイム追跡

Download on the App Store